Home   Weather   Bantam   Past weeks

Flag for Cocos Islands Past Weather in Bantam, Cocos Islands — Yesterday and Last 2 Weeks

Now
82 °F

Sprinkles. Broken clouds.


Feels Like: 88 °F
Forecast: 79 / 84 °F
Wind: 18 mph from Southeast

Location: Cocos Island Airport

Current Time: Apr 24, 2017 at 12:15:22 pm

Latest Report: Apr 24, 2017 at 11:30 am


Visibility: N/A

Pressure: 29.92 "Hg

Humidity: 74%

Dew Point: 73 °F

Location of BantamLocation

Past Weather in Bantam — Graph

°F

Bantam Temperature Yesterday

Maximum temperature yesterday: 82 °F (at 9:51 am)
Minimum temperature yesterday: 79 °F (at 2:00 am)
Average temperature yesterday: 81 °F

High & Low Weather Summary for the Past Weeks

 TemperatureHumidityPressure
High86 °F (Apr 10, 10:30 am)94% (Apr 12, 3:09 am)29.98 "Hg (Apr 12, 3:09 am)
Low77 °F (Apr 18, 1:00 am)55% (Apr 17, 12:30 pm)29.71 "Hg (Apr 11, 3:12 pm)
Average81 °F78%29.88 "Hg
* Reported Apr 9 10:30 am — Apr 24 11:00 am, Bantam, Weather by CustomWeather, © 2017

Note: Actual official high and low records may vary slightly from our data, if they occured in-between our weather recording intervals... More about our weather records

Advertising

Bantam Weather History for the Previous 24 Hours

Scroll right to see more
 ConditionsComfort  
Time TempWeatherWind HumidityBarometerVisibility
11:00 am
Mon, Apr 24
82 °FPartly sunny.17 mph74%29.95 "HgN/A
10:00 am84 °FPartly sunny.17 mph70%29.95 "HgN/A
9:30 am82 °FPartly sunny.18 mph70%29.98 "HgN/A
9:00 am82 °FScattered clouds.17 mph70%29.98 "HgN/A
8:30 am82 °FScattered clouds.17 mph74%29.95 "HgN/A
8:00 am81 °FScattered clouds.17 mph74%29.95 "HgN/A
7:30 am81 °FPassing clouds.18 mph74%29.95 "HgN/A
6:30 am79 °FClear.16 mph74%29.92 "HgN/A
6:00 am79 °FPassing clouds.14 mph79%29.92 "HgN/A
5:30 am79 °FPassing clouds.15 mph79%29.89 "HgN/A
5:00 am79 °FPassing clouds.17 mph79%29.89 "HgN/A
4:30 am79 °FPartly cloudy.16 mph79%29.89 "HgN/A
4:00 am79 °FPassing clouds.17 mph79%29.89 "HgN/A
3:00 am79 °FPassing clouds.16 mph79%29.89 "HgN/A
2:32 am79 °FPassing clouds.17 mph79%29.89 "HgN/A
2:08 am79 °FPartly cloudy.17 mph79%29.92 "Hg4 mi
1:30 am79 °FPassing clouds.20 mph79%29.92 "HgN/A
1:00 am79 °FPassing clouds.17 mph84%29.92 "HgN/A
12:30 am79 °FPassing clouds.16 mph84%29.95 "HgN/A
12:00 am79 °FPassing clouds.17 mph79%29.95 "HgN/A
11:30 pm
Sun, Apr 23
79 °FPassing clouds.16 mph84%29.95 "HgN/A
11:00 pm79 °FPassing clouds.17 mph79%29.95 "HgN/A
10:30 pm79 °FPassing clouds.17 mph79%29.95 "HgN/A
10:00 pm79 °FPassing clouds.15 mph79%29.95 "HgN/A
9:30 pm79 °FPassing clouds.16 mph79%29.95 "HgN/A
9:00 pm81 °FPassing clouds.17 mph74%29.95 "HgN/A
8:30 pm79 °FPassing clouds.16 mph84%29.95 "HgN/A
7:30 pm81 °FClear.20 mph74%29.95 "HgN/A
6:30 pm81 °FScattered clouds.17 mph79%29.92 "HgN/A
6:00 pm81 °FBroken clouds.17 mph79%29.92 "Hg3 mi
5:30 pm81 °FPartly sunny.17 mph79%29.92 "HgN/A
5:00 pm81 °FPartly sunny.17 mph79%29.92 "HgN/A
4:30 pm81 °FScattered clouds.17 mph74%29.89 "HgN/A
4:00 pm81 °FScattered clouds.18 mph79%29.89 "HgN/A
3:30 pm82 °FScattered clouds.16 mph70%29.89 "HgN/A
3:00 pm82 °FSunny.16 mph70%29.89 "HgN/A
2:00 pm82 °FSunny.18 mph70%29.92 "HgN/A
1:30 pm82 °FSunny.18 mph70%29.92 "HgN/A
1:00 pm82 °FScattered clouds.18 mph70%29.92 "HgN/A
12:30 pm82 °FScattered clouds.17 mph70%29.92 "HgN/A
12:00 pm82 °FScattered clouds.18 mph70%29.95 "HgN/A
Weather by CustomWeather, © 2017

See weather overviewHow to use our weather pages